EW1232 Weather Reports


time (UTC)temp
F
wind
direction
speed
knots
gust
knots
rain 1hr
in
rain 24hr
in
rain mn
in
humidity
%
barometer
mb
20260507115021 41 0 0.0 0.9 0.00 0.00 0.00 93 1016.0
20260507114537 41 0 0.0 1.7 0.00 0.00 0.00 93 1015.9
20260507114019 40 137 0.0 1.7 0.00 0.00 0.00 94 1016.0
20260507113519 39 162 0.0 1.7 0.00 0.00 0.00 93 1016.0
20260507113038 38 178 0.9 1.7 0.00 0.00 0.00 93 1016.0
20260507112519 38 178 0.0 1.7 0.00 0.00 0.00 93 1015.8
20260507112018 38 0 0.0 1.7 0.00 0.00 0.00 93 1015.8
20260507111543 37 0 0.0 1.7 0.00 0.00 0.00 92 1015.7
20260507111018 36 0 0.0 1.7 0.00 0.00 0.00 92 1015.8
20260507110518 36 169 0.0 1.7 0.00 0.00 0.00 92 1015.6
20260507110035 36 0 0.0 1.7 0.00 0.00 0.00 91 1015.6
20260507105519 36 120 0.0 1.7 0.00 0.00 0.00 91 1015.6
20260507105021 36 0 0.0 1.7 0.00 0.00 0.00 91 1015.4
20260507104535 36 190 0.0 1.7 0.00 0.00 0.00 91 1015.4
20260507104019 36 178 0.9 1.7 0.00 0.00 0.00 91 1015.4
20260507103520 36 190 0.0 1.7 0.00 0.00 0.00 91 1015.3
20260507103038 36 0 0.0 1.7 0.00 0.00 0.00 91 1015.4
20260507102518 36 178 0.0 1.7 0.00 0.00 0.00 91 1015.4
20260507102019 37 178 0.9 1.7 0.00 0.00 0.00 91 1015.4
20260507101538 37 171 0.9 1.7 0.00 0.00 0.00 91 1015.4
20260507101023 37 178 0.0 0.9 0.00 0.00 0.00 91 1015.3
20260507100521 37 137 0.0 0.9 0.00 0.00 0.00 91 1015.3
20260507100036 37 0 0.0 1.7 0.00 0.00 0.00 91 1015.3
20260507095519 37 0 0.0 1.7 0.00 0.00 0.00 91 1015.4
20260507095019 37 153 0.0 1.7 0.00 0.00 0.00 91 1015.4
20260507094540 37 0 0.0 1.7 0.00 0.00 0.00 91 1015.3
20260507094018 37 146 0.0 1.7 0.00 0.00 0.00 90 1015.4
20260507093518 37 0 0.0 0.9 0.00 0.00 0.00 90 1015.3
20260507093042 37 221 0.0 0.9 0.00 0.00 0.00 90 1015.3
20260507092519 37 0 0.0 0.9 0.00 0.00 0.00 90 1015.3
20260507092019 37 0 0.0 0.9 0.00 0.00 0.00 90 1015.3
20260507091539 37 196 0.0 0.9 0.00 0.00 0.00 90 1015.1
20260507091019 38 0 0.0 1.7 0.00 0.00 0.00 90 1015.2
20260507090518 38 0 0.0 1.7 0.00 0.00 0.00 90 1015.1
20260507090037 38 178 0.0 0.9 0.00 0.00 0.00 90 1015.1
20260507085519 38 0 0.0 0.9 0.00 0.01 0.00 90 1015.0
20260507085019 38 0 0.0 0.9 0.00 0.01 0.00 90 1015.0
20260507084539 38 0 0.0 0.9 0.00 0.01 0.00 90 1015.0
20260507084023 38 0 0.0 0.9 0.00 0.01 0.00 90 1015.0
20260507083519 38 0 0.0 0.9 0.00 0.01 0.00 89 1015.0
20260507083039 38 0 0.0 0.9 0.00 0.01 0.00 90 1014.8
20260507082519 38 153 0.0 0.9 0.00 0.01 0.00 89 1014.9
20260507082018 38 0 0.0 0.9 0.00 0.01 0.00 89 1014.8
20260507081538 38 153 0.0 0.9 0.00 0.01 0.00 89 1014.7
20260507081019 38 0 0.0 0.9 0.00 0.01 0.00 89 1014.8
20260507080524 39 0 0.0 0.9 0.00 0.01 0.00 89 1014.7
20260507080036 39 0 0.0 1.7 0.00 0.01 0.00 89 1014.8
20260507075520 39 178 0.0 1.7 0.00 0.09 0.00 89 1014.7
20260507075020 39 178 0.0 0.9 0.00 0.09 0.00 89 1014.8
20260507074536 39 0 0.0 0.9 0.00 0.09 0.00 89 1014.8
20260507074019 39 221 0.0 0.9 0.00 0.09 0.00 89 1014.9
20260507073521 39 0 0.0 1.7 0.00 0.09 0.00 89 1014.8
20260507073036 39 137 0.0 1.7 0.00 0.09 0.00 89 1014.7
20260507072519 39 0 0.0 0.9 0.00 0.09 0.00 89 1014.9
20260507072018 39 0 0.0 0.9 0.00 0.09 0.00 89 1014.9
20260507071536 39 0 0.0 0.9 0.00 0.09 0.00 88 1014.9
20260507071018 40 153 0.0 1.7 0.00 0.09 0.00 88 1014.9
20260507070519 40 0 0.0 1.7 0.00 0.09 0.00 88 1014.8
20260507070035 40 165 0.0 1.7 0.00 0.09 0.00 88 1014.8
20260507065518 40 0 0.0 0.9 0.00 0.15 0.00 88 1014.9
20260507065018 40 0 0.0 0.9 0.00 0.15 0.00 88 1015.0
20260507064535 40 0 0.0 0.9 0.00 0.15 0.00 87 1015.0
20260507064018 40 0 0.0 0.9 0.00 0.15 0.00 88 1015.1
20260507063520 40 0 0.0 0.0 0.00 0.15 0.00 88 1015.1
20260507063037 41 0 0.0 0.9 0.00 0.15 0.00 87 1015.1
20260507062519 41 0 0.0 0.9 0.00 0.15 0.00 87 1015.0
20260507062019 41 34 0.0 0.9 0.00 0.15 0.00 87 1015.1
20260507061537 41 0 0.0 0.0 0.00 0.15 0.00 87 1015.0
20260507061018 41 0 0.0 0.9 0.00 0.15 0.00 87 1015.1
20260507060519 42 0 0.0 0.9 0.00 0.15 0.00 88 1015.0
20260507060037 42 137 0.0 0.9 0.00 0.15 0.00 88 1015.1
20260507055519 42 0 0.0 0.9 0.00 0.37 0.00 87 1015.1
20260507055017 42 0 0.0 0.9 0.00 0.37 0.00 87 1015.2
20260507054540 42 178 0.0 0.9 0.00 0.37 0.00 88 1015.2
20260507054022 43 0 0.0 0.9 0.00 0.37 0.00 88 1015.2
20260507053519 43 0 0.0 0.9 0.00 0.37 0.00 88 1015.2
20260507053036 43 0 0.0 0.9 0.00 0.37 0.00 88 1015.2
20260507052519 43 0 0.0 1.7 0.00 0.37 0.00 88 1015.2
20260507052021 43 0 0.0 1.7 0.00 0.37 0.00 88 1015.2
20260507051535 43 0 0.0 1.7 0.00 0.37 0.00 88 1015.3
20260507051019 44 0 0.0 0.9 0.00 0.37 0.00 88 1015.4
20260507050520 44 0 0.0 1.7 0.00 0.37 0.00 88 1015.5
20260507050042 44 0 0.0 1.7 0.00 0.37 0.00 88 1015.5
20260507045520 44 9 0.0 1.7 0.00 0.58 0.00 88 1015.5
20260507045018 44 44 0.0 1.7 0.00 0.58 0.00 87 1015.5
20260507044538 44 178 0.0 0.9 0.00 0.58 0.00 87 1015.4
20260507044019 44 178 0.0 1.7 0.00 0.58 0.00 87 1015.4
20260507043523 44 0 0.0 1.7 0.00 0.58 0.00 87 1015.3
20260507043035 44 158 0.0 0.9 0.00 0.58 0.00 87 1015.2
20260507042539 44 0 0.0 0.9 0.00 0.58 0.00 87 1015.3
20260507042018 44 120 0.0 0.9 0.00 0.58 0.00 86 1015.3
20260507041549 44 0 0.0 0.9 0.00 0.58 0.00 86 1015.3
20260507041019 44 0 0.0 1.7 0.00 0.58 0.00 86 1015.3
20260507040522 44 0 0.0 1.7 0.00 0.58 0.00 86 1015.1
20260507040035 44 169 0.9 1.7 0.00 0.58 0.00 85 1015.1
20260507035519 44 120 0.0 1.7 0.00 0.64 0.58 85 1015.1
20260507035020 44 126 0.0 1.7 0.00 0.64 0.58 85 1015.1
20260507034539 45 162 0.0 1.7 0.00 0.64 0.58 85 1015.1
20260507034019 45 162 0.0 1.7 0.00 0.64 0.58 84 1015.1
20260507033519 45 0 0.9 1.7 0.00 0.64 0.58 84 1015.0
20260507033037 45 162 0.0 1.7 0.00 0.64 0.58 84 1015.1
20260507032519 45 146 0.0 1.7 0.00 0.64 0.58 84 1015.1
20260507032019 45 162 0.0 1.7 0.00 0.64 0.58 84 1015.1
20260507031535 46 162 0.0 1.7 0.00 0.64 0.58 84 1015.2
20260507031019 46 169 0.9 1.7 0.00 0.64 0.58 84 1015.3
20260507030520 46 137 0.0 1.7 0.00 0.64 0.58 83 1015.3
20260507030035 46 146 0.0 0.9 0.00 0.64 0.58 83 1015.3
20260507025522 46 178 0.0 0.9 0.00 0.78 0.58 83 1015.4
20260507025019 47 0 0.0 0.9 0.00 0.78 0.58 83 1015.3
20260507024534 47 0 0.0 0.9 0.00 0.78 0.58 83 1015.3
20260507024021 47 0 0.0 0.9 0.00 0.78 0.58 83 1015.3
20260507023520 47 0 0.0 0.9 0.00 0.78 0.58 83 1015.4
20260507023037 47 0 0.0 0.9 0.00 0.78 0.58 82 1015.3
20260507022519 48 0 0.0 1.7 0.00 0.78 0.58 82 1015.4
20260507022019 48 153 0.0 1.7 0.00 0.78 0.58 82 1015.3
20260507021535 48 193 0.0 1.7 0.00 0.78 0.58 81 1015.3
20260507021018 48 0 0.0 1.7 0.00 0.78 0.58 81 1015.1
20260507020519 48 0 0.0 1.7 0.00 0.78 0.58 80 1015.0
20260507020035 49 178 0.0 1.7 0.00 0.78 0.58 80 1015.0
20260507015518 49 162 0.0 1.7 0.00 0.90 0.58 80 1015.0
20260507015022 49 178 0.0 1.7 0.00 0.90 0.58 79 1015.0
20260507014548 49 153 0.0 1.7 0.00 0.90 0.58 79 1014.7
20260507014019 49 137 0.0 1.7 0.00 0.90 0.58 78 1014.6
20260507013519 49 178 0.0 1.7 0.00 0.90 0.58 76 1014.6
20260507013044 50 137 0.0 0.9 0.00 0.90 0.58 75 1014.5
20260507012520 50 0 0.0 0.9 0.00 0.90 0.58 74 1014.5
20260507012025 50 0 0.0 0.9 0.00 0.90 0.58 74 1014.5
20260507011538 51 0 0.0 0.9 0.00 0.90 0.58 73 1014.5
20260507011023 51 0 0.0 0.9 0.00 0.90 0.58 72 1014.5
20260507010522 51 153 0.0 0.9 0.00 0.90 0.58 72 1014.6
20260507010037 51 0 0.0 0.9 0.00 0.90 0.58 71 1014.5
20260507005523 52 137 0.0 0.9 0.00 0.97 0.58 70 1014.5
20260507005021 52 0 0.0 0.9 0.00 0.97 0.58 69 1014.5
20260507004540 52 0 0.0 1.7 0.00 0.97 0.58 68 1014.4
20260507004023 53 0 0.0 1.7 0.00 0.97 0.58 67 1014.3
20260507003523 53 0 0.0 1.7 0.00 0.97 0.58 66 1014.3
20260507003039 53 0 0.0 1.7 0.00 0.97 0.58 65 1014.2
20260507002518 54 196 0.0 1.7 0.00 0.97 0.58 64 1014.2
20260507002022 55 178 0.0 1.7 0.00 0.97 0.58 63 1014.1
20260507001547 55 165 0.0 1.7 0.00 0.97 0.58 62 1013.9
20260507001020 55 0 0.0 0.9 0.00 0.97 0.58 60 1014.0
20260507000523 56 0 0.0 0.9 0.00 0.97 0.58 59 1013.9
20260507000037 56 0 0.0 2.6 0.00 0.97 0.58 58 1013.9
20260506235522 56 0 0.0 3.5 0.00 1.01 0.58 58 1013.8
20260506235018 56 0 0.9 3.5 0.00 1.01 0.58 57 1013.9
20260506234535 56 122 0.9 3.5 0.00 1.01 0.58 57 1014.0
20260506234018 57 26 0.0 2.6 0.00 1.01 0.58 55 1013.9
20260506233519 57 342 0.9 5.2 0.00 1.01 0.58 55 1013.8
20260506233040 57 26 0.9 7.8 0.00 1.01 0.58 55 1013.8
20260506232522 57 0 0.9 7.8 0.00 1.01 0.58 54 1013.7
20260506232022 57 41 1.7 6.1 0.00 1.01 0.58 55 1013.8
20260506231543 58 51 1.7 4.3 0.00 1.01 0.58 54 1013.8
20260506231024 58 225 0.9 6.1 0.00 1.01 0.58 56 1013.8
20260506230518 57 0 1.7 7.0 0.00 1.01 0.58 55 1013.8
20260506230039 57 18 2.6 7.0 0.00 1.01 0.58 56 1013.9
20260506225521 57 24 0.9 4.3 0.00 1.04 0.58 56 1013.8
20260506225022 57 334 0.9 5.2 0.00 1.04 0.58 56 1013.8
20260506224536 57 34 1.7 7.0 0.00 1.04 0.58 56 1013.9
20260506224018 57 93 1.7 7.0 0.00 1.04 0.58 58 1014.0
20260506223518 57 120 1.7 7.0 0.00 1.04 0.58 57 1014.1
20260506223036 57 0 0.9 2.6 0.00 1.04 0.58 56 1014.2
20260506222518 57 26 0.0 2.6 0.00 1.04 0.58 55 1014.2
20260506222021 57 266 0.0 4.3 0.00 1.04 0.58 56 1014.1
20260506221535 57 68 0.9 4.3 0.00 1.04 0.58 55 1014.0
20260506221019 57 51 0.0 3.5 0.00 1.04 0.58 55 1014.2
20260506220521 57 301 0.9 7.0 0.00 1.04 0.58 54 1014.2
20260506220035 57 0 0.9 7.0 0.00 1.04 0.58 54 1014.2
20260506215519 57 13 0.9 5.2 0.00 1.08 0.58 55 1014.3
20260506215019 57 90 0.9 5.2 0.00 1.08 0.58 54 1014.2
20260506214535 57 9 1.7 8.7 0.00 1.08 0.58 54 1014.2
20260506214020 57 244 0.9 8.7 0.00 1.08 0.58 55 1014.1
20260506213518 57 13 0.9 6.1 0.00 1.08 0.58 55 1014.1
20260506213037 57 0 0.9 3.5 0.00 1.08 0.58 55 1014.0
20260506212519 57 9 1.7 8.7 0.00 1.08 0.58 54 1014.0
20260506212024 57 346 1.7 8.7 0.00 1.08 0.58 57 1013.8
20260506211544 57 33 4.3 8.7 0.00 1.08 0.58 55 1013.7
20260506211022 57 279 1.7 8.7 0.00 1.08 0.58 55 1013.7
20260506210522 57 18 2.6 8.7 0.00 1.08 0.58 55 1013.6
20260506210039 57 321 3.5 8.7 0.00 1.08 0.58 56 1013.7
20260506205518 57 342 1.7 6.1 0.00 1.14 0.58 54 1013.6
20260506205018 57 68 0.9 4.3 0.00 1.14 0.58 53 1013.7
20260506204538 57 57 0.9 4.3 0.00 1.14 0.58 54 1013.6
20260506204020 57 51 0.9 4.3 0.00 1.14 0.58 56 1013.6
20260506203521 57 26 1.7 4.3 0.00 1.14 0.58 56 1013.7
20260506203043 57 80 1.7 7.0 0.00 1.14 0.58 55 1013.8
20260506202520 57 328 1.7 7.0 0.00 1.14 0.58 55 1013.8
20260506202020 58 57 0.9 7.0 0.00 1.14 0.58 54 1013.8
20260506201536 58 239 0.9 7.8 0.00 1.14 0.58 55 1013.7
20260506201018 58 360 0.0 7.8 0.00 1.14 0.58 54 1013.7
20260506200521 58 257 2.6 8.7 0.00 1.14 0.58 54 1013.7
20260506200044 58 334 3.5 9.6 0.00 1.14 0.58 53 1013.6
20260506195518 59 259 1.7 9.6 0.00 1.43 0.58 54 1013.6
20260506195021 59 332 3.5 9.6 0.00 1.43 0.58 54 1013.6
20260506194540 59 43 0.9 5.2 0.00 1.43 0.58 53 1013.6
20260506194023 59 251 0.9 10.4 0.00 1.43 0.58 53 1013.6
20260506193520 59 340 2.6 10.4 0.00 1.43 0.58 51 1013.6
20260506193040 59 26 5.2 10.4 0.00 1.43 0.58 53 1013.3
20260506192522 59 9 3.5 10.4 0.00 1.43 0.58 55 1013.3
20260506192021 59 288 2.6 10.4 0.00 1.43 0.58 52 1013.2
20260506191537 59 57 3.5 11.3 0.00 1.43 0.58 54 1013.5
20260506191021 59 309 3.5 11.3 0.00 1.43 0.58 52 1013.4
20260506190519 59 0 5.2 11.3 0.00 1.43 0.58 55 1013.3
20260506190036 59 301 5.2 10.4 0.00 1.43 0.58 55 1013.4
20260506185518 59 329 1.7 8.7 0.00 1.43 0.58 53 1013.5
20260506185020 59 265 1.7 8.7 0.00 1.43 0.58 56 1013.4
20260506184539 59 42 4.3 8.7 0.00 1.43 0.58 54 1013.3
20260506184021 59 16 2.6 10.4 0.00 1.43 0.58 54 1013.2
20260506183521 59 55 4.3 13.0 0.00 1.43 0.58 54 1013.2
20260506183040 59 339 6.1 13.0 0.00 1.43 0.58 52 1013.2
20260506182520 59 42 3.5 10.4 0.00 1.43 0.58 54 1013.3
20260506182021 60 23 5.2 10.4 0.00 1.43 0.58 53 1013.3
20260506181538 60 13 2.6 10.4 0.00 1.43 0.58 53 1013.3
20260506181023 60 259 4.3 10.4 0.00 1.43 0.58 53 1013.2
20260506180528 61 329 1.7 6.1 0.00 1.43 0.58 57 1013.1
20260506180046 60 0 1.7 10.4 0.00 1.43 0.58 58 1013.2
20260506175519 60 312 2.6 12.2 0.00 1.43 0.58 58 1013.4
20260506175020 60 57 5.2 12.2 0.00 1.43 0.58 57 1013.6
20260506174535 60 27 4.3 11.3 0.00 1.43 0.58 57 1013.7
20260506174019 59 325 1.7 7.8 0.00 1.43 0.58 58 1013.6
20260506173519 59 346 3.5 7.8 0.00 1.43 0.58 59 1013.5
20260506173037 59 51 2.6 7.8 0.00 1.43 0.58 58 1013.6
20260506172518 59 334 1.7 7.8 0.00 1.43 0.58 59 1013.7
20260506172026 58 38 2.6 7.8 0.00 1.43 0.58 63 1013.7
20260506171547 58 232 1.7 5.2 0.00 1.43 0.58 58 1013.7
20260506171018 58 309 1.7 8.7 0.00 1.43 0.58 58 1013.7
20260506170522 58 47 1.7 8.7 0.00 1.43 0.58 58 1013.8
20260506170040 58 26 2.6 7.0 0.00 1.43 0.58 60 1013.8
20260506165521 58 178 1.7 7.0 0.00 1.43 0.58 59 1013.8
20260506165021 58 9 1.7 8.7 0.00 1.43 0.58 58 1013.8
20260506164537 58 187 2.6 8.7 0.00 1.43 0.58 59 1013.9
20260506164018 58 51 3.5 7.0 0.00 1.43 0.58 60 1013.8
20260506163519 58 26 2.6 10.4 0.00 1.43 0.58 59 1013.8
20260506163045 57 137 0.9 10.4 0.00 1.43 0.58 59 1013.7
20260506162518 57 51 1.7 7.8 0.00 1.43 0.58 62 1013.7
20260506162022 57 252 2.6 13.0 0.00 1.43 0.58 63 1013.6
20260506161547 57 49 5.2 13.0 0.00 1.43 0.58 63 1013.6
20260506161021 57 292 3.5 9.6 0.00 1.43 0.58 62 1013.7
20260506160522 57 274 3.5 9.6 0.00 1.43 0.58 66 1013.6
20260506160034 57 26 1.7 7.0 0.00 1.43 0.58 65 1013.6
20260506155519 56 248 1.7 7.0 0.00 1.43 0.58 66 1013.7
20260506155019 56 282 2.6 7.0 0.00 1.43 0.58 65 1013.5
20260506154540 56 344 3.5 7.0 0.00 1.43 0.58 68 1013.8
20260506154021 55 248 2.6 6.1 0.00 1.43 0.58 68 1014.1
20260506153520 55 93 1.7 6.1 0.00 1.43 0.58 68 1014.0
20260506153038 55 47 1.7 8.7 0.00 1.43 0.58 69 1014.0
20260506152521 54 346 1.7 8.7 0.00 1.43 0.58 68 1013.9
20260506152019 54 59 3.5 8.7 0.00 1.43 0.58 68 1013.8
20260506151536 54 187 1.7 8.7 0.00 1.43 0.58 69 1013.5
20260506151018 53 51 1.7 8.7 0.00 1.43 0.58 69 1013.3
20260506150519 53 41 4.3 9.6 0.00 1.43 0.58 69 1013.3
20260506150035 53 317 3.5 10.4 0.00 1.43 0.58 72 1013.1
20260506145520 53 32 5.2 11.3 0.00 1.43 0.58 73 1012.8
20260506145019 52 33 3.5 11.3 0.00 1.43 0.58 73 1012.8
20260506144539 52 42 6.1 10.4 0.00 1.43 0.58 75 1012.9
20260506144019 52 347 4.3 11.3 0.00 1.43 0.58 77 1012.8
20260506143519 51 22 5.2 11.3 0.00 1.43 0.58 78 1012.6
20260506143038 51 43 6.1 10.4 0.00 1.43 0.58 81 1012.6
20260506142519 51 59 2.6 10.4 0.00 1.43 0.58 85 1012.7
20260506142018 50 331 2.6 10.4 0.00 1.43 0.58 86 1012.9
20260506141535 49 34 2.6 9.6 0.00 1.43 0.58 88 1012.6
20260506141019 49 347 2.6 9.6 0.00 1.43 0.58 89 1012.6
20260506140520 48 20 3.5 7.8 0.00 1.43 0.58 90 1012.7
20260506140043 48 20 2.6 7.8 0.00 1.43 0.58 91 1012.5
20260506135521 47 344 3.5 7.8 0.00 1.43 0.58 91 1012.7
20260506135027 47 289 1.7 7.0 0.00 1.43 0.58 92 1012.8
20260506134606 47 296 1.7 8.7 0.00 1.43 0.58 92 1013.0
20260506134018 47 28 0.9 8.7 0.00 1.43 0.58 93 1012.8
20260506133520 47 11 2.6 8.7 0.00 1.43 0.58 93 1012.7
20260506133034 47 323 0.9 7.8 0.00 1.43 0.58 93 1012.5
20260506132519 46 344 3.5 7.8 0.00 1.43 0.58 94 1012.4
20260506132019 46 9 1.7 6.1 0.00 1.43 0.58 93 1012.4
20260506131543 46 51 1.7 7.8 0.00 1.43 0.58 94 1012.4
20260506131019 46 282 1.7 7.8 0.00 1.43 0.58 94 1012.4
20260506130523 46 13 1.7 7.0 0.00 1.43 0.58 94 1012.1
20260506130036 46 13 1.7 7.8 0.00 1.43 0.58 94 1012.0
20260506125518 45 309 3.5 7.8 0.00 1.43 0.58 94 1012.1
20260506125018 45 350 3.5 7.8 0.00 1.43 0.58 94 1012.0
20260506124536 45 13 1.7 5.2 0.00 1.43 0.58 94 1011.9
20260506124018 45 309 1.7 6.1 0.00 1.43 0.58 94 1011.6
20260506123519 45 0 3.5 6.1 0.00 1.43 0.58 94 1011.5
20260506123042 45 334 1.7 7.8 0.00 1.43 0.58 94 1011.7
20260506122519 45 344 3.5 7.8 0.00 1.43 0.58 94 1011.7
20260506122019 44 10 2.6 7.8 0.00 1.43 0.58 94 1011.6
20260506121539 44 321 2.6 7.8 0.00 1.43 0.58 94 1011.6
20260506121018 44 344 2.6 7.0 0.00 1.43 0.58 94 1011.7
20260506120519 44 31 2.6 7.8 0.00 1.43 0.58 94 1011.5
20260506120039 44 305 0.9 7.8 0.00 1.43 0.58 94 1011.3
20260506115518 44 11 2.6 7.8 0.00 1.43 0.58 94 1011.2